This is the latest recevied weather packets stored in our database for station/object WB7AAV. If no packets are shown the sender has not sent any weather packets the latest 10 day(s).
| Time | Temp. | Humidity | Pressure | Rain* | Wind** | Luminosity | Snow |
|---|---|---|---|---|---|---|---|
| 1778188452 | 16.11° C | 35% | 1015.7 hPa | 0 mm | - | - | - |
| 1778188330 | 16.11° C | 37% | 1015.7 hPa | 0 mm | - | - | - |
| 1778188211 | 16.11° C | 35% | 1015.5 hPa | 0 mm | - | - | - |
| 1778188091 | 16.11° C | 35% | 1015.5 hPa | 0 mm | - | - | - |
| 1778187970 | 16.11° C | 33% | 1015.5 hPa | 0 mm | - | - | - |
| 1778187851 | 16.67° C | 36% | 1015.5 hPa | 0 mm | - | - | - |
| 1778187730 | 16.11° C | 36% | 1015.7 hPa | 0 mm | - | - | - |
| 1778187610 | 16.11° C | 36% | 1015.7 hPa | 0 mm | - | - | - |
| 1778187490 | 16.11° C | 36% | 1015.7 hPa | 0 mm | - | - | - |
| 1778187370 | 16.11° C | 39% | 1015.7 hPa | 0 mm | - | - | - |
| 1778187249 | 16.11° C | 37% | 1015.8 hPa | 0 mm | - | - | - |
| 1778187130 | 16.11° C | 37% | 1015.8 hPa | 0 mm | - | - | - |
| 1778187010 | 16.11° C | 36% | 1015.8 hPa | 0 mm | - | - | - |
| 1778186890 | 16.67° C | 37% | 1015.8 hPa | 0 mm | - | - | - |
| 1778186770 | 16.67° C | 40% | 1015.9 hPa | 0 mm | - | - | - |
| 1778186649 | 16.67° C | 37% | 1015.9 hPa | 0 mm | - | - | - |
| 1778186530 | 16.67° C | 37% | 1016 hPa | 0 mm | - | - | - |
| 1778186410 | 16.67° C | 36% | 1015.9 hPa | 0 mm | - | - | - |
| 1778186290 | 16.67° C | 35% | 1015.9 hPa | 0 mm | - | - | - |
| 1778186170 | 16.67° C | 38% | 1015.9 hPa | 0 mm | - | - | - |
| 1778186050 | 16.67° C | 35% | 1015.9 hPa | 0 mm | - | - | - |
| 1778185930 | 16.67° C | 39% | 1016 hPa | 0 mm | - | - | - |
| 1778185810 | 16.67° C | 34% | 1015.9 hPa | 0 mm | - | - | - |
| 1778185690 | 16.67° C | 37% | 1016 hPa | 0 mm | - | - | - |
| 1778185569 | 16.67° C | 41% | 1016 hPa | 0 mm | - | - | - |
* Rain latest hour (hover to see other rain measurements)
** Current wind speed in m/s (hover to see current wind gust speed)